Date,TemperatureHighF,TemperatureAvgF,TemperatureLowF,DewpointHighF,DewpointAvgF,DewpointLowF,HumidityHigh,HumidityAvg,HumidityLow,PressureMaxIn,PressureMinIn,WindSpeedMaxMPH,WindSpeedAvgMPH,GustSpeedMaxMPH,PrecipitationSumIn
2013-2-1,11.1,-0.4,-9.9,7.5,-5.5,-14.4,86,79,72,29.33,29.04,19,10,19,0.00
2013-2-2,17.4,13.0,9.5,11.5,8.6,4.7,88,82,72,29.15,28.97,15,6,15,0.00
2013-2-3,20.3,16.4,8.4,16.7,11.9,4.8,90,83,71,29.10,28.88,23,8,23,0.00
2013-2-4,20.7,16.3,9.3,17.0,11.9,5.2,89,83,74,29.02,28.85,14,6,14,0.00
2013-2-5,34.3,24.6,12.2,29.2,20.6,8.2,89,85,81,29.12,28.78,22,10,22,0.00
2013-2-6,37.8,27.0,11.5,32.5,23.3,8.9,91,86,74,29.16,28.97,28,10,28,0.00
2013-2-7,35.8,32.1,26.2,33.5,29.9,24.0,93,92,90,29.18,28.95,22,10,22,0.00
2013-2-8,34.2,27.5,25.2,27.2,23.6,21.9,91,85,72,29.36,29.18,21,7,21,0.00
2013-2-9,30.7,28.1,25.3,27.9,25.3,22.5,91,89,87,29.31,28.97,30,19,30,0.00
2013-2-10,39.0,34.2,30.0,37.7,32.4,27.8,95,93,90,28.98,28.35,28,17,28,0.00
2013-2-11,32.2,26.6,21.9,30.6,23.4,17.8,94,87,80,29.08,28.40,44,18,44,0.00
2013-2-12,34.5,26.8,21.0,28.8,22.7,16.6,91,84,78,29.11,28.86,21,9,21,0.00
2013-2-13,37.2,28.3,22.3,31.6,25.4,20.3,93,89,79,28.86,28.75,20,5,20,0.00
2013-2-14,36.5,32.3,22.8,32.8,26.9,14.0,90,81,68,29.10,28.63,24,11,24,0.00
2013-2-15,22.8,17.7,12.2,15.2,11.0,6.5,82,75,67,29.29,29.15,22,9,22,0.00
2013-2-16,22.8,15.2,9.1,15.5,9.8,5.0,85,79,71,29.27,29.14,11,4,11,0.00
2013-2-17,32.2,23.3,12.6,24.7,17.9,8.3,86,80,72,29.15,28.75,33,18,33,0.00
2013-2-18,39.9,27.4,10.2,34.1,23.1,5.0,90,84,76,28.79,28.59,29,13,29,0.00
2013-2-19,70.3,6.0,1.2,5.2,1.0,-4.2,85,80,75,29.32,28.79,26,13,26,0.00
2013-2-20,21.7,9.9,0.3,14.2,4.2,-4.7,83,78,72,29.42,29.31,15,6,15,0.00
2013-2-21,23.7,18.1,10.6,21.1,13.4,6.3,91,82,74,29.38,28.94,16,6,16,0.00
2013-2-22,38.8,26.5,21.4,30.9,22.4,18.2,91,85,71,28.95,28.82,12,6,12,0.00
2013-2-23,27.3,19.7,12.0,20.0,15.1,8.3,89,83,71,28.99,28.90,14,7,14,0.00
2013-2-24,34.9,20.6,8.8,26.4,16.1,5.8,89,83,69,29.12,28.99,12,3,12,0.00
2013-2-25,43.5,29.6,23.5,33.1,24.9,19.9,88,83,65,29.13,28.98,10,4,10,0.00
2013-2-26,34.0,30.9,27.7,28.5,26.7,23.7,91,84,79,28.98,28.73,24,10,24,0.00
2013-2-27,35.4,30.9,28.0,30.6,28.0,26.0,92,89,79,28.93,28.75,22,13,22,0.00
2013-2-28,34.7,29.6,26.2,28.4,25.2,22.6,91,84,73,29.16,28.93,19,12,19,0.00